Walvis Bay Airport

Jump to: basic info | weather | frequencies | runways | comments

Related pages: nearby airports | nearby navaids | notams | map

Basic information (top)

Codes: WVB FYWB
Location: lon -22.979900, lat 14.645300, elev 299 ft / 91 m msl
Status: medium_airport
Scheduled airline service: no
Links: Wikipedia Mobile

Weather (top)

Current conditions (rec'd 2015/04/19 13:00Z):

FYWB 191300Z AUTO 24012KT //// // ////// 19/10 Q1015

Airport forecast (rec'd 2015/04/19 06:00Z):

TAF TAF FYWB 190400Z 1906/2012 04004KT 0800 FG OVC008 
      BECMG 1907/1908 9999 NSW BKN015 
      BECMG 1909/1911 33008KT CAVOK

Frequencies (top)

Verify before use: may be inaccurate or out of date.

APP: 122.5 MHz (APP)
TWR: 122.5 MHz (TWR)

Runways (top)

09/27: 7,001 x 98 ft (2,134 x 30 m) — paved — lighted

Latest comments (top)

No comments yet for Walvis Bay Airport

More... (top)

See also NOTAMs and nearby airports and navaids, or visit the Walvis Bay Airport page at the main OurAirports website..